Preview of NWS' New Version of Forecast
This preview is not operational and should not be used for support decisions.

Regional Weather Roundup (RWR)

Issued by National Weather Service (NWS)

                            
000
ASUS45 KCYS 200310
RWRWY 

WYOMING REGIONAL WEATHER ROUNDUP
NATIONAL WEATHER SERVICE CHEYENNE WY
900 PM MDT MON AUG 19 2019

NOTE:  "FAIR" INDICATES FEW OR NO CLOUDS BELOW 12,000 FEET
WITH NO SIGNIFICANT WEATHER AND/OR OBSTRUCTIONS TO VISIBILITY.

WYZ001-200400-
...YELLOWSTONE NATIONAL PARK...
  
CITY           SKY/WX    TMP DP  RH WIND       PRES   REMARKS
LK YELLOWSTONE   N/A     58  40  51 CALM      30.29R                  
W YELLOWSTONE  NOT AVBL                                               

$$
WYZ002>013-054>058-071-098>099-200400-
...NORTHERN WYOMING...
  
CITY           SKY/WX    TMP DP  RH WIND       PRES   REMARKS
JACKSON        CLEAR     66  35  31 CALM      30.16R                  
CODY           CLEAR     78  39  24 CALM      30.04R                  
GREYBULL       PTCLDY    85  35  16 NW8       29.88R                  
WORLAND        PTCLDY    71  36  27 E3        29.91R                  
SHERIDAN       CLEAR     68  49  50 SW7       29.97R                  
BUFFALO        PTCLDY    68  46  45 SW6       30.06R                  
GILLETTE       CLEAR     65  46  50 S5        30.00R                  
HULETT         FAIR      75  45  33 CALM      30.02R                  
NEWCASTLE      FAIR      79  45  29 NE10      29.99R                  

$$
WYZ014>020-022>026-101>103-200400-
...CENTRAL WYOMING...
  
CITY           SKY/WX    TMP DP  RH WIND       PRES   REMARKS
BIG PINEY      MOCLDY    68  28  22 W12       30.22R                  
PINEDALE       PTCLDY    64  19  17 W7        30.22R                  
DUBOIS         FAIR      64  27  24 NW8       30.21R                  
LANDER         PTCLDY    79  25  13 SW14      30.06R                  
RIVERTON       PTCLDY    75  25  15 W7        30.04R                  
CASPER         PTCLDY    70  26  19 MISG      30.05R                  
DOUGLAS        CLEAR     75  28  17 W5        30.02R                  

$$
WYZ021-027>030-104>119-200400-
...SOUTHERN WYOMING...
  
CITY           SKY/WX    TMP DP  RH WIND       PRES   REMARKS
EVANSTON       PTCLDY    69  21  16 W9        30.23S                  
KEMMERER       PTCLDY    64  21  19 W8        30.25R                  
FORT BRIDGER   NOT AVBL                                               
ROCK SPRINGS   CLEAR     74  21  13 W7        30.19R                  
DIXON          FAIR      62  25  24 E21       30.22R                  
RAWLINS        PTCLDY    74  22  14 W9        30.21R                  
SARATOGA       FAIR      72  23  16 SW12      30.24R                  
LARAMIE        PTCLDY    66  26  22 W6        30.25R                  
CHEYENNE       MOCLDY    76  45  33 SE8       30.16R                  
TORRINGTON     PTCLDY    78  49  35 SE9       29.98R                  
PINE BLUFFS    FAIR      77  45  31 SE8       30.09R                  

$$